Кировское водохранилище

Киргизия     42°38′07″N   71°38′26″E
темп.,
°C
ветер,
м/с
пор.,
м/с
влажн.,
%
обл.,
%
осадки,
мм/ч
давл.,
гПа
погр.,
м
19 апреля, пн
пн1900:00+9вюв696627 0.3 1022145
03:00+9вюв685546 0.0 1020106
06:00+9вюв564999 0.0 102075
09:00+13юв5543100 0.0 1019302
12:00+16зюз2428100 0.0 10172232
15:00+18з142582 0.0 10152923
18:00+16ссз223397 0.0 10152005
21:00+12в1146100 0.0 101512
20 апреля, вт
вт2000:00+11вюв334599 0.0 101429
03:00+10вюв3348100 0.0 101238
06:00+11юв3444100 0.0 101239
09:00+14юв3341100 0.0 1012272
12:00+16зсз5637100 0.1 10122263
15:00+12з4759100 0.6 10141432
18:00+10ююв4470100 1.6 1013422
21:00+8вюв687821 0.2 1012154
21 апреля, ср
ср2100:00+8вюв4568100 0.2 100976
03:00+6сз4696100 1.2 1011410
06:00+5сз3397100 4.1 1013271
09:00+5сз2295100 0.3 1014266
12:00+5ссз3394100 1.3 1016451
15:00+3сз4496100 2.2 1020394
18:00+1сз3399100 3.0 1024167
21:00+1сз2299100 0.9 1027148
22 апреля, чт
чт2200:000сз2299100 1.4 1027136
03:000сз1196100 0.2 1027256
06:000сз219597 0.3 1028185
09:00+1сз119083 0.1 1030301
12:00+4сз227699 0.1 1029748
15:00+5зсз227273 0.0 1028825
18:00+6ссз126654 0.0 1029834
21:00+3в127814 0.0 103139
23 апреля, пт
пт2300:00+1в22753 0.0 103119
03:00+1вюв11751 0.0 102913
06:000с11710 0.0 102911
09:00+4сз22590 0.0 1029322
12:00+8сз22501 0.0 1026723
15:00+11сз324297 0.0 10241012
18:00+11сз1344100 0.0 1024898
21:00+5вюв126869 0.0 102524